Cosmos 1500 - Orbit

View from above orbital plane
View from above orbital plane
View from above satellite
View from above satellite

Ground track
Ground track

The orbit data is extracted from the following two-line orbital elements,

1 14372U 83099A   13138.15059135  .00003877  00000-0  24693-3 0  2604
2 14372 082.5375 008.1472 0018131 185.2049 321.2257 15.08360575612230
Epoch (UTC): 18 May 2013 03:36:51
Eccentricity: 0.0018131
inclination: 82.5375°
perigee height: 528 km
apogee height: 554 km
right ascension of ascending node: 8.1472°
argument of perigee: 185.2049°
revolutions per day: 15.08360575
mean anomaly at epoch: 321.2257°
orbit number at epoch: 61223

The dashed part of the orbit path shows where the satellite is in the earth's shadow,  

Developed and maintained by Chris Peat, Heavens-Above GmbH. Please read the updated FAQ before sending e-mail. Imprint. DLR